Index of /20260429/WXO-DD/model_rdps/10km/06/045
Name Last modified Size Description
Parent Directory -
20260429T06Z_MSC_RDPS_AbsoluteVorticity_IsbL-0250_RLatLon0.09_PT045H.grib2 2026-04-29 08:52 614K
20260429T06Z_MSC_RDPS_AbsoluteVorticity_IsbL-0500_RLatLon0.09_PT045H.grib2 2026-04-29 08:52 559K
20260429T06Z_MSC_RDPS_AbsoluteVorticity_IsbL-0700_RLatLon0.09_PT045H.grib2 2026-04-29 08:52 625K
20260429T06Z_MSC_RDPS_AbsoluteVorticity_IsbL-0850_RLatLon0.09_PT045H.grib2 2026-04-29 08:52 766K
20260429T06Z_MSC_RDPS_AirTemp_AGL-120m_RLatLon0.09_PT045H.grib2 2026-04-29 08:52 382K
20260429T06Z_MSC_RDPS_AirTemp_AGL-2m_RLatLon0.09_PT045H.grib2 2026-04-29 08:52 622K
20260429T06Z_MSC_RDPS_AirTemp_AGL-40m_RLatLon0.09_PT045H.grib2 2026-04-29 08:52 396K
20260429T06Z_MSC_RDPS_AirTemp_AGL-80m_RLatLon0.09_PT045H.grib2 2026-04-29 08:52 387K
20260429T06Z_MSC_RDPS_AirTemp_IsbL-0001_RLatLon0.09_PT045H.grib2 2026-04-29 08:52 252K
20260429T06Z_MSC_RDPS_AirTemp_IsbL-0005_RLatLon0.09_PT045H.grib2 2026-04-29 08:52 287K
20260429T06Z_MSC_RDPS_AirTemp_IsbL-0010_RLatLon0.09_PT045H.grib2 2026-04-29 08:52 300K
20260429T06Z_MSC_RDPS_AirTemp_IsbL-0020_RLatLon0.09_PT045H.grib2 2026-04-29 08:52 314K
20260429T06Z_MSC_RDPS_AirTemp_IsbL-0030_RLatLon0.09_PT045H.grib2 2026-04-29 08:52 338K
20260429T06Z_MSC_RDPS_AirTemp_IsbL-0050_RLatLon0.09_PT045H.grib2 2026-04-29 08:52 311K
20260429T06Z_MSC_RDPS_AirTemp_IsbL-0100_RLatLon0.09_PT045H.grib2 2026-04-29 08:52 421K
20260429T06Z_MSC_RDPS_AirTemp_IsbL-0150_RLatLon0.09_PT045H.grib2 2026-04-29 08:52 421K
20260429T06Z_MSC_RDPS_AirTemp_IsbL-0175_RLatLon0.09_PT045H.grib2 2026-04-29 08:52 412K
20260429T06Z_MSC_RDPS_AirTemp_IsbL-0200_RLatLon0.09_PT045H.grib2 2026-04-29 08:52 416K
20260429T06Z_MSC_RDPS_AirTemp_IsbL-0225_RLatLon0.09_PT045H.grib2 2026-04-29 08:52 417K
20260429T06Z_MSC_RDPS_AirTemp_IsbL-0250_RLatLon0.09_PT045H.grib2 2026-04-29 08:52 423K
20260429T06Z_MSC_RDPS_AirTemp_IsbL-0275_RLatLon0.09_PT045H.grib2 2026-04-29 08:52 402K
20260429T06Z_MSC_RDPS_AirTemp_IsbL-0300_RLatLon0.09_PT045H.grib2 2026-04-29 08:52 410K
20260429T06Z_MSC_RDPS_AirTemp_IsbL-0350_RLatLon0.09_PT045H.grib2 2026-04-29 08:52 424K
20260429T06Z_MSC_RDPS_AirTemp_IsbL-0400_RLatLon0.09_PT045H.grib2 2026-04-29 08:52 425K
20260429T06Z_MSC_RDPS_AirTemp_IsbL-0450_RLatLon0.09_PT045H.grib2 2026-04-29 08:52 397K
20260429T06Z_MSC_RDPS_AirTemp_IsbL-0500_RLatLon0.09_PT045H.grib2 2026-04-29 08:52 407K
20260429T06Z_MSC_RDPS_AirTemp_IsbL-0550_RLatLon0.09_PT045H.grib2 2026-04-29 08:52 424K
20260429T06Z_MSC_RDPS_AirTemp_IsbL-0600_RLatLon0.09_PT045H.grib2 2026-04-29 08:52 445K
20260429T06Z_MSC_RDPS_AirTemp_IsbL-0650_RLatLon0.09_PT045H.grib2 2026-04-29 08:52 460K
20260429T06Z_MSC_RDPS_AirTemp_IsbL-0700_RLatLon0.09_PT045H.grib2 2026-04-29 08:52 376K
20260429T06Z_MSC_RDPS_AirTemp_IsbL-0750_RLatLon0.09_PT045H.grib2 2026-04-29 08:52 405K
20260429T06Z_MSC_RDPS_AirTemp_IsbL-0800_RLatLon0.09_PT045H.grib2 2026-04-29 08:52 441K
20260429T06Z_MSC_RDPS_AirTemp_IsbL-0850_RLatLon0.09_PT045H.grib2 2026-04-29 08:52 485K
20260429T06Z_MSC_RDPS_AirTemp_IsbL-0875_RLatLon0.09_PT045H.grib2 2026-04-29 08:52 504K
20260429T06Z_MSC_RDPS_AirTemp_IsbL-0900_RLatLon0.09_PT045H.grib2 2026-04-29 08:52 515K
20260429T06Z_MSC_RDPS_AirTemp_IsbL-0925_RLatLon0.09_PT045H.grib2 2026-04-29 08:52 515K
20260429T06Z_MSC_RDPS_AirTemp_IsbL-0950_RLatLon0.09_PT045H.grib2 2026-04-29 08:52 517K
20260429T06Z_MSC_RDPS_AirTemp_IsbL-0970_RLatLon0.09_PT045H.grib2 2026-04-29 08:52 510K
20260429T06Z_MSC_RDPS_AirTemp_IsbL-0985_RLatLon0.09_PT045H.grib2 2026-04-29 08:52 501K
20260429T06Z_MSC_RDPS_AirTemp_IsbL-1000_RLatLon0.09_PT045H.grib2 2026-04-29 08:52 486K
20260429T06Z_MSC_RDPS_AirTemp_IsbL-1015_RLatLon0.09_PT045H.grib2 2026-04-29 08:52 482K
20260429T06Z_MSC_RDPS_Albedo_Sfc_RLatLon0.09_PT045H.grib2 2026-04-29 08:52 161K
20260429T06Z_MSC_RDPS_CAPE_Sfc_RLatLon0.09_PT045H.grib2 2026-04-29 08:52 1.6M
20260429T06Z_MSC_RDPS_CIN_Sfc_RLatLon0.09_PT045H.grib2 2026-04-29 08:52 1.2M
20260429T06Z_MSC_RDPS_CloudWater_EAtm_RLatLon0.09_PT045H.grib2 2026-04-29 08:52 221K
20260429T06Z_MSC_RDPS_ConvectivePrecip-Accum_Sfc_RLatLon0.09_PT045H.grib2 2026-04-29 08:52 1.0M
20260429T06Z_MSC_RDPS_DewPointDepression_AGL-2m_RLatLon0.09_PT045H.grib2 2026-04-29 08:52 394K
20260429T06Z_MSC_RDPS_DewPointDepression_IsbL-0001_RLatLon0.09_PT045H.grib2 2026-04-29 08:52 193
20260429T06Z_MSC_RDPS_DewPointDepression_IsbL-0005_RLatLon0.09_PT045H.grib2 2026-04-29 08:52 193
20260429T06Z_MSC_RDPS_DewPointDepression_IsbL-0010_RLatLon0.09_PT045H.grib2 2026-04-29 08:52 193
20260429T06Z_MSC_RDPS_DewPointDepression_IsbL-0020_RLatLon0.09_PT045H.grib2 2026-04-29 08:52 193
20260429T06Z_MSC_RDPS_DewPointDepression_IsbL-0030_RLatLon0.09_PT045H.grib2 2026-04-29 08:52 193
20260429T06Z_MSC_RDPS_DewPointDepression_IsbL-0050_RLatLon0.09_PT045H.grib2 2026-04-29 08:52 80K
20260429T06Z_MSC_RDPS_DewPointDepression_IsbL-0100_RLatLon0.09_PT045H.grib2 2026-04-29 08:52 126K
20260429T06Z_MSC_RDPS_DewPointDepression_IsbL-0150_RLatLon0.09_PT045H.grib2 2026-04-29 08:52 148K
20260429T06Z_MSC_RDPS_DewPointDepression_IsbL-0175_RLatLon0.09_PT045H.grib2 2026-04-29 08:52 181K
20260429T06Z_MSC_RDPS_DewPointDepression_IsbL-0200_RLatLon0.09_PT045H.grib2 2026-04-29 08:52 218K
20260429T06Z_MSC_RDPS_DewPointDepression_IsbL-0225_RLatLon0.09_PT045H.grib2 2026-04-29 08:52 262K
20260429T06Z_MSC_RDPS_DewPointDepression_IsbL-0250_RLatLon0.09_PT045H.grib2 2026-04-29 08:52 299K
20260429T06Z_MSC_RDPS_DewPointDepression_IsbL-0275_RLatLon0.09_PT045H.grib2 2026-04-29 08:52 306K
20260429T06Z_MSC_RDPS_DewPointDepression_IsbL-0300_RLatLon0.09_PT045H.grib2 2026-04-29 08:52 327K
20260429T06Z_MSC_RDPS_DewPointDepression_IsbL-0350_RLatLon0.09_PT045H.grib2 2026-04-29 08:52 334K
20260429T06Z_MSC_RDPS_DewPointDepression_IsbL-0400_RLatLon0.09_PT045H.grib2 2026-04-29 08:52 342K
20260429T06Z_MSC_RDPS_DewPointDepression_IsbL-0450_RLatLon0.09_PT045H.grib2 2026-04-29 08:52 352K
20260429T06Z_MSC_RDPS_DewPointDepression_IsbL-0500_RLatLon0.09_PT045H.grib2 2026-04-29 08:52 355K
20260429T06Z_MSC_RDPS_DewPointDepression_IsbL-0550_RLatLon0.09_PT045H.grib2 2026-04-29 08:52 366K
20260429T06Z_MSC_RDPS_DewPointDepression_IsbL-0600_RLatLon0.09_PT045H.grib2 2026-04-29 08:52 381K
20260429T06Z_MSC_RDPS_DewPointDepression_IsbL-0650_RLatLon0.09_PT045H.grib2 2026-04-29 08:52 388K
20260429T06Z_MSC_RDPS_DewPointDepression_IsbL-0700_RLatLon0.09_PT045H.grib2 2026-04-29 08:52 396K
20260429T06Z_MSC_RDPS_DewPointDepression_IsbL-0750_RLatLon0.09_PT045H.grib2 2026-04-29 08:52 415K
20260429T06Z_MSC_RDPS_DewPointDepression_IsbL-0800_RLatLon0.09_PT045H.grib2 2026-04-29 08:52 441K
20260429T06Z_MSC_RDPS_DewPointDepression_IsbL-0850_RLatLon0.09_PT045H.grib2 2026-04-29 08:52 462K
20260429T06Z_MSC_RDPS_DewPointDepression_IsbL-0875_RLatLon0.09_PT045H.grib2 2026-04-29 08:52 468K
20260429T06Z_MSC_RDPS_DewPointDepression_IsbL-0900_RLatLon0.09_PT045H.grib2 2026-04-29 08:52 461K
20260429T06Z_MSC_RDPS_DewPointDepression_IsbL-0925_RLatLon0.09_PT045H.grib2 2026-04-29 08:52 447K
20260429T06Z_MSC_RDPS_DewPointDepression_IsbL-0950_RLatLon0.09_PT045H.grib2 2026-04-29 08:52 440K
20260429T06Z_MSC_RDPS_DewPointDepression_IsbL-0970_RLatLon0.09_PT045H.grib2 2026-04-29 08:52 429K
20260429T06Z_MSC_RDPS_DewPointDepression_IsbL-0985_RLatLon0.09_PT045H.grib2 2026-04-29 08:52 424K
20260429T06Z_MSC_RDPS_DewPointDepression_IsbL-1000_RLatLon0.09_PT045H.grib2 2026-04-29 08:52 417K
20260429T06Z_MSC_RDPS_DewPointDepression_IsbL-1015_RLatLon0.09_PT045H.grib2 2026-04-29 08:52 407K
20260429T06Z_MSC_RDPS_DewPoint_AGL-2m_RLatLon0.09_PT045H.grib2 2026-04-29 08:52 304K
20260429T06Z_MSC_RDPS_DownwardLongwaveRadiationFlux-Accum_Sfc_RLatLon0.09_PT045H.grib2 2026-04-29 08:52 358K
20260429T06Z_MSC_RDPS_DownwardShortwaveRadiationFlux-Accum_NTAtm_RLatLon0.09_PT045H.grib2 2026-04-29 08:52 127K
20260429T06Z_MSC_RDPS_DownwardShortwaveRadiationFlux-Accum_Sfc_RLatLon0.09_PT045H.grib2 2026-04-29 08:52 549K
20260429T06Z_MSC_RDPS_FreezingRain-Accum1h_Sfc_RLatLon0.09_PT045H.grib2 2026-04-29 08:52 28K
20260429T06Z_MSC_RDPS_FreezingRain-Accum3h_Sfc_RLatLon0.09_PT045H.grib2 2026-04-29 08:52 29K
20260429T06Z_MSC_RDPS_FreezingRain-Accum_Sfc_RLatLon0.09_PT045H.grib2 2026-04-29 08:52 157K
20260429T06Z_MSC_RDPS_GeopotentialHeight_IsbL-0001_RLatLon0.09_PT045H.grib2 2026-04-29 08:52 306K
20260429T06Z_MSC_RDPS_GeopotentialHeight_IsbL-0005_RLatLon0.09_PT045H.grib2 2026-04-29 08:52 298K
20260429T06Z_MSC_RDPS_GeopotentialHeight_IsbL-0010_RLatLon0.09_PT045H.grib2 2026-04-29 08:52 299K
20260429T06Z_MSC_RDPS_GeopotentialHeight_IsbL-0020_RLatLon0.09_PT045H.grib2 2026-04-29 08:52 299K
20260429T06Z_MSC_RDPS_GeopotentialHeight_IsbL-0030_RLatLon0.09_PT045H.grib2 2026-04-29 08:52 300K
20260429T06Z_MSC_RDPS_GeopotentialHeight_IsbL-0050_RLatLon0.09_PT045H.grib2 2026-04-29 08:52 302K
20260429T06Z_MSC_RDPS_GeopotentialHeight_IsbL-0100_RLatLon0.09_PT045H.grib2 2026-04-29 08:52 281K
20260429T06Z_MSC_RDPS_GeopotentialHeight_IsbL-0150_RLatLon0.09_PT045H.grib2 2026-04-29 08:52 224K
20260429T06Z_MSC_RDPS_GeopotentialHeight_IsbL-0175_RLatLon0.09_PT045H.grib2 2026-04-29 08:52 228K
20260429T06Z_MSC_RDPS_GeopotentialHeight_IsbL-0200_RLatLon0.09_PT045H.grib2 2026-04-29 08:52 261K
20260429T06Z_MSC_RDPS_GeopotentialHeight_IsbL-0225_RLatLon0.09_PT045H.grib2 2026-04-29 08:52 263K
20260429T06Z_MSC_RDPS_GeopotentialHeight_IsbL-0250_RLatLon0.09_PT045H.grib2 2026-04-29 08:52 264K
20260429T06Z_MSC_RDPS_GeopotentialHeight_IsbL-0275_RLatLon0.09_PT045H.grib2 2026-04-29 08:52 263K
20260429T06Z_MSC_RDPS_GeopotentialHeight_IsbL-0300_RLatLon0.09_PT045H.grib2 2026-04-29 08:52 263K
20260429T06Z_MSC_RDPS_GeopotentialHeight_IsbL-0350_RLatLon0.09_PT045H.grib2 2026-04-29 08:52 230K
20260429T06Z_MSC_RDPS_GeopotentialHeight_IsbL-0400_RLatLon0.09_PT045H.grib2 2026-04-29 08:52 226K
20260429T06Z_MSC_RDPS_GeopotentialHeight_IsbL-0450_RLatLon0.09_PT045H.grib2 2026-04-29 08:52 294K
20260429T06Z_MSC_RDPS_GeopotentialHeight_IsbL-0500_RLatLon0.09_PT045H.grib2 2026-04-29 08:52 289K
20260429T06Z_MSC_RDPS_GeopotentialHeight_IsbL-0550_RLatLon0.09_PT045H.grib2 2026-04-29 08:52 285K
20260429T06Z_MSC_RDPS_GeopotentialHeight_IsbL-0600_RLatLon0.09_PT045H.grib2 2026-04-29 08:52 281K
20260429T06Z_MSC_RDPS_GeopotentialHeight_IsbL-0650_RLatLon0.09_PT045H.grib2 2026-04-29 08:52 252K
20260429T06Z_MSC_RDPS_GeopotentialHeight_IsbL-0700_RLatLon0.09_PT045H.grib2 2026-04-29 08:52 333K
20260429T06Z_MSC_RDPS_GeopotentialHeight_IsbL-0750_RLatLon0.09_PT045H.grib2 2026-04-29 08:52 334K
20260429T06Z_MSC_RDPS_GeopotentialHeight_IsbL-0800_RLatLon0.09_PT045H.grib2 2026-04-29 08:52 340K
20260429T06Z_MSC_RDPS_GeopotentialHeight_IsbL-0850_RLatLon0.09_PT045H.grib2 2026-04-29 08:52 347K
20260429T06Z_MSC_RDPS_GeopotentialHeight_IsbL-0875_RLatLon0.09_PT045H.grib2 2026-04-29 08:52 348K
20260429T06Z_MSC_RDPS_GeopotentialHeight_IsbL-0900_RLatLon0.09_PT045H.grib2 2026-04-29 08:52 354K
20260429T06Z_MSC_RDPS_GeopotentialHeight_IsbL-0925_RLatLon0.09_PT045H.grib2 2026-04-29 08:52 354K
20260429T06Z_MSC_RDPS_GeopotentialHeight_IsbL-0950_RLatLon0.09_PT045H.grib2 2026-04-29 08:52 360K
20260429T06Z_MSC_RDPS_GeopotentialHeight_IsbL-0970_RLatLon0.09_PT045H.grib2 2026-04-29 08:52 366K
20260429T06Z_MSC_RDPS_GeopotentialHeight_IsbL-0985_RLatLon0.09_PT045H.grib2 2026-04-29 08:52 374K
20260429T06Z_MSC_RDPS_GeopotentialHeight_IsbL-1000_RLatLon0.09_PT045H.grib2 2026-04-29 08:52 385K
20260429T06Z_MSC_RDPS_GeopotentialHeight_IsbL-1015_RLatLon0.09_PT045H.grib2 2026-04-29 08:52 398K
20260429T06Z_MSC_RDPS_Humidex_Sfc_RLatLon0.09_PT045H.grib2 2026-04-29 08:52 2.4M
20260429T06Z_MSC_RDPS_IcePellets-Accum1h_Sfc_RLatLon0.09_PT045H.grib2 2026-04-29 08:52 4.0K
20260429T06Z_MSC_RDPS_IcePellets-Accum3h_Sfc_RLatLon0.09_PT045H.grib2 2026-04-29 08:52 4.2K
20260429T06Z_MSC_RDPS_IcePellets-Accum_Sfc_RLatLon0.09_PT045H.grib2 2026-04-29 08:52 22K
20260429T06Z_MSC_RDPS_KIndex_Sfc_RLatLon0.09_PT045H.grib2 2026-04-29 08:52 2.5M
20260429T06Z_MSC_RDPS_LatentHeatNetFlux_Sfc_RLatLon0.09_PT045H.grib2 2026-04-29 08:52 398K
20260429T06Z_MSC_RDPS_LiftedIndex-MU-VT_IsbL-0500_RLatLon0.09_PT045H.grib2 2026-04-29 08:52 2.4M
20260429T06Z_MSC_RDPS_NetLongwaveRadiationFlux-Accum_Sfc_RLatLon0.09_PT045H.grib2 2026-04-29 08:52 527K
20260429T06Z_MSC_RDPS_NetShortwaveRadiationFlux-Accum_Sfc_RLatLon0.09_PT045H.grib2 2026-04-29 08:52 551K
20260429T06Z_MSC_RDPS_PlanetaryBoundaryLayerHeight_Sfc_RLatLon0.09_PT045H.grib2 2026-04-29 08:52 1.1M
20260429T06Z_MSC_RDPS_Precip-Accum1h_Sfc_RLatLon0.09_PT045H.grib2 2026-04-29 08:52 1.2M
20260429T06Z_MSC_RDPS_Precip-Accum3h_Sfc_RLatLon0.09_PT045H.grib2 2026-04-29 08:52 1.3M
20260429T06Z_MSC_RDPS_Precip-Accum_Sfc_RLatLon0.09_PT045H.grib2 2026-04-29 08:52 2.0M
20260429T06Z_MSC_RDPS_PrecipRate_Sfc_RLatLon0.09_PT045H.grib2 2026-04-29 08:52 180K
20260429T06Z_MSC_RDPS_PrecipType-Instant_Sfc_RLatLon0.09_PT045H.grib2 2026-04-29 08:52 557K
20260429T06Z_MSC_RDPS_Pressure-Trend3h_Sfc_RLatLon0.09_PT045H.grib2 2026-04-29 08:52 1.2M
20260429T06Z_MSC_RDPS_Pressure_MSL_RLatLon0.09_PT045H.grib2 2026-04-29 08:52 320K
20260429T06Z_MSC_RDPS_Pressure_PVU-1.5_RLatLon0.09_PT045H.grib2 2026-04-29 08:52 2.3M
20260429T06Z_MSC_RDPS_Pressure_PVU-1_RLatLon0.09_PT045H.grib2 2026-04-29 08:52 2.4M
20260429T06Z_MSC_RDPS_Pressure_PVU-2_RLatLon0.09_PT045H.grib2 2026-04-29 08:52 2.4M
20260429T06Z_MSC_RDPS_Pressure_Sfc_RLatLon0.09_PT045H.grib2 2026-04-29 08:52 498K
20260429T06Z_MSC_RDPS_RadiativeTemp_Sfc_RLatLon0.09_PT045H.grib2 2026-04-29 08:52 303K
20260429T06Z_MSC_RDPS_Rain-Accum1h_Sfc_RLatLon0.09_PT045H.grib2 2026-04-29 08:52 572K
20260429T06Z_MSC_RDPS_Rain-Accum3h_Sfc_RLatLon0.09_PT045H.grib2 2026-04-29 08:52 588K
20260429T06Z_MSC_RDPS_Rain-Accum_Sfc_RLatLon0.09_PT045H.grib2 2026-04-29 08:52 1.5M
20260429T06Z_MSC_RDPS_RelativeHumidity_AGL-2m_RLatLon0.09_PT045H.grib2 2026-04-29 08:52 1.0M
20260429T06Z_MSC_RDPS_RelativeHumidity_IsbL-0010_RLatLon0.09_PT045H.grib2 2026-04-29 08:52 631K
20260429T06Z_MSC_RDPS_RelativeHumidity_IsbL-0020_RLatLon0.09_PT045H.grib2 2026-04-29 08:52 675K
20260429T06Z_MSC_RDPS_RelativeHumidity_IsbL-0030_RLatLon0.09_PT045H.grib2 2026-04-29 08:52 603K
20260429T06Z_MSC_RDPS_RelativeHumidity_IsbL-0050_RLatLon0.09_PT045H.grib2 2026-04-29 08:52 366K
20260429T06Z_MSC_RDPS_RelativeHumidity_IsbL-0100_RLatLon0.09_PT045H.grib2 2026-04-29 08:52 279K
20260429T06Z_MSC_RDPS_RelativeHumidity_IsbL-0150_RLatLon0.09_PT045H.grib2 2026-04-29 08:52 404K
20260429T06Z_MSC_RDPS_RelativeHumidity_IsbL-0175_RLatLon0.09_PT045H.grib2 2026-04-29 08:52 473K
20260429T06Z_MSC_RDPS_RelativeHumidity_IsbL-0200_RLatLon0.09_PT045H.grib2 2026-04-29 08:52 555K
20260429T06Z_MSC_RDPS_RelativeHumidity_IsbL-0225_RLatLon0.09_PT045H.grib2 2026-04-29 08:52 628K
20260429T06Z_MSC_RDPS_RelativeHumidity_IsbL-0250_RLatLon0.09_PT045H.grib2 2026-04-29 08:52 697K
20260429T06Z_MSC_RDPS_RelativeHumidity_IsbL-0275_RLatLon0.09_PT045H.grib2 2026-04-29 08:52 721K
20260429T06Z_MSC_RDPS_RelativeHumidity_IsbL-0300_RLatLon0.09_PT045H.grib2 2026-04-29 08:52 766K
20260429T06Z_MSC_RDPS_RelativeHumidity_IsbL-0350_RLatLon0.09_PT045H.grib2 2026-04-29 08:52 786K
20260429T06Z_MSC_RDPS_RelativeHumidity_IsbL-0400_RLatLon0.09_PT045H.grib2 2026-04-29 08:52 797K
20260429T06Z_MSC_RDPS_RelativeHumidity_IsbL-0450_RLatLon0.09_PT045H.grib2 2026-04-29 08:52 805K
20260429T06Z_MSC_RDPS_RelativeHumidity_IsbL-0500_RLatLon0.09_PT045H.grib2 2026-04-29 08:52 804K
20260429T06Z_MSC_RDPS_RelativeHumidity_IsbL-0550_RLatLon0.09_PT045H.grib2 2026-04-29 08:52 823K
20260429T06Z_MSC_RDPS_RelativeHumidity_IsbL-0600_RLatLon0.09_PT045H.grib2 2026-04-29 08:52 859K
20260429T06Z_MSC_RDPS_RelativeHumidity_IsbL-0650_RLatLon0.09_PT045H.grib2 2026-04-29 08:52 867K
20260429T06Z_MSC_RDPS_RelativeHumidity_IsbL-0700_RLatLon0.09_PT045H.grib2 2026-04-29 08:52 889K
20260429T06Z_MSC_RDPS_RelativeHumidity_IsbL-0750_RLatLon0.09_PT045H.grib2 2026-04-29 08:52 929K
20260429T06Z_MSC_RDPS_RelativeHumidity_IsbL-0800_RLatLon0.09_PT045H.grib2 2026-04-29 08:52 1.0M
20260429T06Z_MSC_RDPS_RelativeHumidity_IsbL-0850_RLatLon0.09_PT045H.grib2 2026-04-29 08:52 1.0M
20260429T06Z_MSC_RDPS_RelativeHumidity_IsbL-0875_RLatLon0.09_PT045H.grib2 2026-04-29 08:52 1.0M
20260429T06Z_MSC_RDPS_RelativeHumidity_IsbL-0900_RLatLon0.09_PT045H.grib2 2026-04-29 08:52 1.1M
20260429T06Z_MSC_RDPS_RelativeHumidity_IsbL-0925_RLatLon0.09_PT045H.grib2 2026-04-29 08:52 1.0M
20260429T06Z_MSC_RDPS_RelativeHumidity_IsbL-0950_RLatLon0.09_PT045H.grib2 2026-04-29 08:52 1.0M
20260429T06Z_MSC_RDPS_RelativeHumidity_IsbL-0970_RLatLon0.09_PT045H.grib2 2026-04-29 08:52 1.0M
20260429T06Z_MSC_RDPS_RelativeHumidity_IsbL-0985_RLatLon0.09_PT045H.grib2 2026-04-29 08:52 1.0M
20260429T06Z_MSC_RDPS_RelativeHumidity_IsbL-1000_RLatLon0.09_PT045H.grib2 2026-04-29 08:52 1.0M
20260429T06Z_MSC_RDPS_RelativeHumidity_IsbL-1015_RLatLon0.09_PT045H.grib2 2026-04-29 08:52 1.0M
20260429T06Z_MSC_RDPS_Runoff-Accum_Sfc_RLatLon0.09_PT045H.grib2 2026-04-29 08:52 48K
20260429T06Z_MSC_RDPS_SWEATIndex_Sfc_RLatLon0.09_PT045H.grib2 2026-04-29 08:52 2.4M
20260429T06Z_MSC_RDPS_SeeingIndex_EAtm_RLatLon0.09_PT045H.grib2 2026-04-29 08:52 1.0M
20260429T06Z_MSC_RDPS_SensibleHeatNetFlux_Sfc_RLatLon0.09_PT045H.grib2 2026-04-29 08:52 282K
20260429T06Z_MSC_RDPS_ShowalterIndex_IsbL-0500_RLatLon0.09_PT045H.grib2 2026-04-29 08:52 2.6M
20260429T06Z_MSC_RDPS_SkyTransparencyIndex_EAtm_RLatLon0.09_PT045H.grib2 2026-04-29 08:52 706K
20260429T06Z_MSC_RDPS_Snow-Accum1h_Sfc_RLatLon0.09_PT045H.grib2 2026-04-29 08:52 458K
20260429T06Z_MSC_RDPS_Snow-Accum3h_Sfc_RLatLon0.09_PT045H.grib2 2026-04-29 08:52 457K
20260429T06Z_MSC_RDPS_Snow-Accum_Sfc_RLatLon0.09_PT045H.grib2 2026-04-29 08:52 765K
20260429T06Z_MSC_RDPS_SnowDensity_Sfc_RLatLon0.09_PT045H.grib2 2026-04-29 08:52 177K
20260429T06Z_MSC_RDPS_SnowDepth_Sfc_RLatLon0.09_PT045H.grib2 2026-04-29 08:52 678K
20260429T06Z_MSC_RDPS_SoilTemp_DBS-0to10cm_RLatLon0.09_PT045H.grib2 2026-04-29 08:52 238K
20260429T06Z_MSC_RDPS_SoilTemp_Sfc_RLatLon0.09_PT045H.grib2 2026-04-29 08:52 263K
20260429T06Z_MSC_RDPS_SoilVolumetricIceContent_Sfc_RLatLon0.09_PT045H.grib2 2026-04-29 08:52 162K
20260429T06Z_MSC_RDPS_SoilVolumetricWaterContent_DBS-0to10cm_RLatLon0.09_PT045H.grib2 2026-04-29 08:52 268K
20260429T06Z_MSC_RDPS_SoilVolumetricWaterContent_DBS-0to1cm_RLatLon0.09_PT045H.grib2 2026-04-29 08:52 337K
20260429T06Z_MSC_RDPS_SpecificHumidity_AGL-120m_RLatLon0.09_PT045H.grib2 2026-04-29 08:52 480K
20260429T06Z_MSC_RDPS_SpecificHumidity_AGL-2m_RLatLon0.09_PT045H.grib2 2026-04-29 08:52 648K
20260429T06Z_MSC_RDPS_SpecificHumidity_AGL-40m_RLatLon0.09_PT045H.grib2 2026-04-29 08:52 486K
20260429T06Z_MSC_RDPS_SpecificHumidity_AGL-80m_RLatLon0.09_PT045H.grib2 2026-04-29 08:52 481K
20260429T06Z_MSC_RDPS_SpecificHumidity_IsbL-0001_RLatLon0.09_PT045H.grib2 2026-04-29 08:52 353K
20260429T06Z_MSC_RDPS_SpecificHumidity_IsbL-0005_RLatLon0.09_PT045H.grib2 2026-04-29 08:52 361K
20260429T06Z_MSC_RDPS_SpecificHumidity_IsbL-0010_RLatLon0.09_PT045H.grib2 2026-04-29 08:52 395K
20260429T06Z_MSC_RDPS_SpecificHumidity_IsbL-0020_RLatLon0.09_PT045H.grib2 2026-04-29 08:52 387K
20260429T06Z_MSC_RDPS_SpecificHumidity_IsbL-0030_RLatLon0.09_PT045H.grib2 2026-04-29 08:52 369K
20260429T06Z_MSC_RDPS_SpecificHumidity_IsbL-0050_RLatLon0.09_PT045H.grib2 2026-04-29 08:52 482K
20260429T06Z_MSC_RDPS_SpecificHumidity_IsbL-0100_RLatLon0.09_PT045H.grib2 2026-04-29 08:52 447K
20260429T06Z_MSC_RDPS_SpecificHumidity_IsbL-0150_RLatLon0.09_PT045H.grib2 2026-04-29 08:52 450K
20260429T06Z_MSC_RDPS_SpecificHumidity_IsbL-0175_RLatLon0.09_PT045H.grib2 2026-04-29 08:52 430K
20260429T06Z_MSC_RDPS_SpecificHumidity_IsbL-0200_RLatLon0.09_PT045H.grib2 2026-04-29 08:52 448K
20260429T06Z_MSC_RDPS_SpecificHumidity_IsbL-0225_RLatLon0.09_PT045H.grib2 2026-04-29 08:52 454K
20260429T06Z_MSC_RDPS_SpecificHumidity_IsbL-0250_RLatLon0.09_PT045H.grib2 2026-04-29 08:52 559K
20260429T06Z_MSC_RDPS_SpecificHumidity_IsbL-0275_RLatLon0.09_PT045H.grib2 2026-04-29 08:52 475K
20260429T06Z_MSC_RDPS_SpecificHumidity_IsbL-0300_RLatLon0.09_PT045H.grib2 2026-04-29 08:52 549K
20260429T06Z_MSC_RDPS_SpecificHumidity_IsbL-0350_RLatLon0.09_PT045H.grib2 2026-04-29 08:52 542K
20260429T06Z_MSC_RDPS_SpecificHumidity_IsbL-0400_RLatLon0.09_PT045H.grib2 2026-04-29 08:52 523K
20260429T06Z_MSC_RDPS_SpecificHumidity_IsbL-0450_RLatLon0.09_PT045H.grib2 2026-04-29 08:52 577K
20260429T06Z_MSC_RDPS_SpecificHumidity_IsbL-0500_RLatLon0.09_PT045H.grib2 2026-04-29 08:52 510K
20260429T06Z_MSC_RDPS_SpecificHumidity_IsbL-0550_RLatLon0.09_PT045H.grib2 2026-04-29 08:52 584K
20260429T06Z_MSC_RDPS_SpecificHumidity_IsbL-0600_RLatLon0.09_PT045H.grib2 2026-04-29 08:52 641K
20260429T06Z_MSC_RDPS_SpecificHumidity_IsbL-0650_RLatLon0.09_PT045H.grib2 2026-04-29 08:52 560K
20260429T06Z_MSC_RDPS_SpecificHumidity_IsbL-0700_RLatLon0.09_PT045H.grib2 2026-04-29 08:52 602K
20260429T06Z_MSC_RDPS_SpecificHumidity_IsbL-0750_RLatLon0.09_PT045H.grib2 2026-04-29 08:52 657K
20260429T06Z_MSC_RDPS_SpecificHumidity_IsbL-0800_RLatLon0.09_PT045H.grib2 2026-04-29 08:52 729K
20260429T06Z_MSC_RDPS_SpecificHumidity_IsbL-0850_RLatLon0.09_PT045H.grib2 2026-04-29 08:52 791K
20260429T06Z_MSC_RDPS_SpecificHumidity_IsbL-0875_RLatLon0.09_PT045H.grib2 2026-04-29 08:52 818K
20260429T06Z_MSC_RDPS_SpecificHumidity_IsbL-0900_RLatLon0.09_PT045H.grib2 2026-04-29 08:52 834K
20260429T06Z_MSC_RDPS_SpecificHumidity_IsbL-0925_RLatLon0.09_PT045H.grib2 2026-04-29 08:52 838K
20260429T06Z_MSC_RDPS_SpecificHumidity_IsbL-0950_RLatLon0.09_PT045H.grib2 2026-04-29 08:52 698K
20260429T06Z_MSC_RDPS_SpecificHumidity_IsbL-0970_RLatLon0.09_PT045H.grib2 2026-04-29 08:52 685K
20260429T06Z_MSC_RDPS_SpecificHumidity_IsbL-0985_RLatLon0.09_PT045H.grib2 2026-04-29 08:52 675K
20260429T06Z_MSC_RDPS_SpecificHumidity_IsbL-1000_RLatLon0.09_PT045H.grib2 2026-04-29 08:52 666K
20260429T06Z_MSC_RDPS_SpecificHumidity_IsbL-1015_RLatLon0.09_PT045H.grib2 2026-04-29 08:52 655K
20260429T06Z_MSC_RDPS_SpecificHumidity_Sfc_RLatLon0.09_PT045H.grib2 2026-04-29 08:52 314K
20260429T06Z_MSC_RDPS_StormRelativeHelicity_EtaL-10000_RLatLon0.09_PT045H.grib2 2026-04-29 08:52 1.1M
20260429T06Z_MSC_RDPS_StormSeverityIndex_EtaL-10000_RLatLon0.09_PT045H.grib2 2026-04-29 08:52 1.2M
20260429T06Z_MSC_RDPS_Thickness_IsbL-0850to0700_RLatLon0.09_PT045H.grib2 2026-04-29 08:52 174K
20260429T06Z_MSC_RDPS_Thickness_IsbL-1000to0500_RLatLon0.09_PT045H.grib2 2026-04-29 08:52 196K
20260429T06Z_MSC_RDPS_Thickness_IsbL-1000to0850_RLatLon0.09_PT045H.grib2 2026-04-29 08:52 182K
20260429T06Z_MSC_RDPS_TotalCloudCover_Sfc_RLatLon0.09_PT045H.grib2 2026-04-29 08:52 655K
20260429T06Z_MSC_RDPS_TotalTotalsIndex_Sfc_RLatLon0.09_PT045H.grib2 2026-04-29 08:52 2.4M
20260429T06Z_MSC_RDPS_UVIndex-ClearSky_Sfc_RLatLon0.09_PT045H.grib2 2026-04-29 08:52 96K
20260429T06Z_MSC_RDPS_UVIndex_Sfc_RLatLon0.09_PT045H.grib2 2026-04-29 08:52 192K
20260429T06Z_MSC_RDPS_UpwardLongwaveRadiationFlux_NTAtm_RLatLon0.09_PT045H.grib2 2026-04-29 08:52 487K
20260429T06Z_MSC_RDPS_UpwardShortwaveRadiationFlux_NTAtm_RLatLon0.09_PT045H.grib2 2026-04-29 08:52 189K
20260429T06Z_MSC_RDPS_VerticalVelocity_IsbL-0250_RLatLon0.09_PT045H.grib2 2026-04-29 08:52 549K
20260429T06Z_MSC_RDPS_VerticalVelocity_IsbL-0500_RLatLon0.09_PT045H.grib2 2026-04-29 08:52 672K
20260429T06Z_MSC_RDPS_VerticalVelocity_IsbL-0700_RLatLon0.09_PT045H.grib2 2026-04-29 08:52 589K
20260429T06Z_MSC_RDPS_VerticalVelocity_IsbL-0850_RLatLon0.09_PT045H.grib2 2026-04-29 08:52 652K
20260429T06Z_MSC_RDPS_VerticalWindShear_EtaL-6500_RLatLon0.09_PT045H.grib2 2026-04-29 08:52 1.2M
20260429T06Z_MSC_RDPS_WindChill_Sfc_RLatLon0.09_PT045H.grib2 2026-04-29 08:52 1.1M
20260429T06Z_MSC_RDPS_WindDir_AGL-10m_RLatLon0.09_PT045H.grib2 2026-04-29 08:52 960K
20260429T06Z_MSC_RDPS_WindDir_AGL-120m_RLatLon0.09_PT045H.grib2 2026-04-29 08:52 597K
20260429T06Z_MSC_RDPS_WindDir_AGL-40m_RLatLon0.09_PT045H.grib2 2026-04-29 08:52 629K
20260429T06Z_MSC_RDPS_WindDir_AGL-80m_RLatLon0.09_PT045H.grib2 2026-04-29 08:52 609K
20260429T06Z_MSC_RDPS_WindDir_IsbL-0001_RLatLon0.09_PT045H.grib2 2026-04-29 08:52 322K
20260429T06Z_MSC_RDPS_WindDir_IsbL-0005_RLatLon0.09_PT045H.grib2 2026-04-29 08:52 373K
20260429T06Z_MSC_RDPS_WindDir_IsbL-0010_RLatLon0.09_PT045H.grib2 2026-04-29 08:52 398K
20260429T06Z_MSC_RDPS_WindDir_IsbL-0020_RLatLon0.09_PT045H.grib2 2026-04-29 08:52 432K
20260429T06Z_MSC_RDPS_WindDir_IsbL-0030_RLatLon0.09_PT045H.grib2 2026-04-29 08:52 428K
20260429T06Z_MSC_RDPS_WindDir_IsbL-0050_RLatLon0.09_PT045H.grib2 2026-04-29 08:52 423K
20260429T06Z_MSC_RDPS_WindDir_IsbL-0100_RLatLon0.09_PT045H.grib2 2026-04-29 08:52 432K
20260429T06Z_MSC_RDPS_WindDir_IsbL-0150_RLatLon0.09_PT045H.grib2 2026-04-29 08:52 427K
20260429T06Z_MSC_RDPS_WindDir_IsbL-0175_RLatLon0.09_PT045H.grib2 2026-04-29 08:52 449K
20260429T06Z_MSC_RDPS_WindDir_IsbL-0200_RLatLon0.09_PT045H.grib2 2026-04-29 08:52 455K
20260429T06Z_MSC_RDPS_WindDir_IsbL-0225_RLatLon0.09_PT045H.grib2 2026-04-29 08:52 457K
20260429T06Z_MSC_RDPS_WindDir_IsbL-0250_RLatLon0.09_PT045H.grib2 2026-04-29 08:52 458K
20260429T06Z_MSC_RDPS_WindDir_IsbL-0275_RLatLon0.09_PT045H.grib2 2026-04-29 08:52 481K
20260429T06Z_MSC_RDPS_WindDir_IsbL-0300_RLatLon0.09_PT045H.grib2 2026-04-29 08:52 476K
20260429T06Z_MSC_RDPS_WindDir_IsbL-0350_RLatLon0.09_PT045H.grib2 2026-04-29 08:52 494K
20260429T06Z_MSC_RDPS_WindDir_IsbL-0400_RLatLon0.09_PT045H.grib2 2026-04-29 08:52 508K
20260429T06Z_MSC_RDPS_WindDir_IsbL-0450_RLatLon0.09_PT045H.grib2 2026-04-29 08:52 518K
20260429T06Z_MSC_RDPS_WindDir_IsbL-0500_RLatLon0.09_PT045H.grib2 2026-04-29 08:52 537K
20260429T06Z_MSC_RDPS_WindDir_IsbL-0550_RLatLon0.09_PT045H.grib2 2026-04-29 08:52 557K
20260429T06Z_MSC_RDPS_WindDir_IsbL-0600_RLatLon0.09_PT045H.grib2 2026-04-29 08:52 584K
20260429T06Z_MSC_RDPS_WindDir_IsbL-0650_RLatLon0.09_PT045H.grib2 2026-04-29 08:52 626K
20260429T06Z_MSC_RDPS_WindDir_IsbL-0700_RLatLon0.09_PT045H.grib2 2026-04-29 08:52 678K
20260429T06Z_MSC_RDPS_WindDir_IsbL-0750_RLatLon0.09_PT045H.grib2 2026-04-29 08:52 721K
20260429T06Z_MSC_RDPS_WindDir_IsbL-0800_RLatLon0.09_PT045H.grib2 2026-04-29 08:52 783K
20260429T06Z_MSC_RDPS_WindDir_IsbL-0850_RLatLon0.09_PT045H.grib2 2026-04-29 08:52 847K
20260429T06Z_MSC_RDPS_WindDir_IsbL-0875_RLatLon0.09_PT045H.grib2 2026-04-29 08:52 873K
20260429T06Z_MSC_RDPS_WindDir_IsbL-0900_RLatLon0.09_PT045H.grib2 2026-04-29 08:52 890K
20260429T06Z_MSC_RDPS_WindDir_IsbL-0925_RLatLon0.09_PT045H.grib2 2026-04-29 08:52 903K
20260429T06Z_MSC_RDPS_WindDir_IsbL-0950_RLatLon0.09_PT045H.grib2 2026-04-29 08:52 907K
20260429T06Z_MSC_RDPS_WindDir_IsbL-0970_RLatLon0.09_PT045H.grib2 2026-04-29 08:52 914K
20260429T06Z_MSC_RDPS_WindDir_IsbL-0985_RLatLon0.09_PT045H.grib2 2026-04-29 08:52 923K
20260429T06Z_MSC_RDPS_WindDir_IsbL-1000_RLatLon0.09_PT045H.grib2 2026-04-29 08:52 937K
20260429T06Z_MSC_RDPS_WindDir_IsbL-1015_RLatLon0.09_PT045H.grib2 2026-04-29 08:52 953K
20260429T06Z_MSC_RDPS_WindGust-Max_AGL-10m_RLatLon0.09_PT045H.grib2 2026-04-29 08:52 1.0M
20260429T06Z_MSC_RDPS_WindGust-Min_AGL-10m_RLatLon0.09_PT045H.grib2 2026-04-29 08:52 954K
20260429T06Z_MSC_RDPS_WindGust_AGL-10m_RLatLon0.09_PT045H.grib2 2026-04-29 08:52 1.0M
20260429T06Z_MSC_RDPS_WindSpeed_AGL-10m_RLatLon0.09_PT045H.grib2 2026-04-29 08:52 825K
20260429T06Z_MSC_RDPS_WindSpeed_AGL-120m_RLatLon0.09_PT045H.grib2 2026-04-29 08:52 530K
20260429T06Z_MSC_RDPS_WindSpeed_AGL-40m_RLatLon0.09_PT045H.grib2 2026-04-29 08:52 532K
20260429T06Z_MSC_RDPS_WindSpeed_AGL-80m_RLatLon0.09_PT045H.grib2 2026-04-29 08:52 531K
20260429T06Z_MSC_RDPS_WindSpeed_IsbL-0001_RLatLon0.09_PT045H.grib2 2026-04-29 08:52 253K
20260429T06Z_MSC_RDPS_WindSpeed_IsbL-0005_RLatLon0.09_PT045H.grib2 2026-04-29 08:52 383K
20260429T06Z_MSC_RDPS_WindSpeed_IsbL-0010_RLatLon0.09_PT045H.grib2 2026-04-29 08:52 399K
20260429T06Z_MSC_RDPS_WindSpeed_IsbL-0020_RLatLon0.09_PT045H.grib2 2026-04-29 08:52 325K
20260429T06Z_MSC_RDPS_WindSpeed_IsbL-0030_RLatLon0.09_PT045H.grib2 2026-04-29 08:52 324K
20260429T06Z_MSC_RDPS_WindSpeed_IsbL-0050_RLatLon0.09_PT045H.grib2 2026-04-29 08:52 450K
20260429T06Z_MSC_RDPS_WindSpeed_IsbL-0100_RLatLon0.09_PT045H.grib2 2026-04-29 08:52 473K
20260429T06Z_MSC_RDPS_WindSpeed_IsbL-0150_RLatLon0.09_PT045H.grib2 2026-04-29 08:52 379K
20260429T06Z_MSC_RDPS_WindSpeed_IsbL-0175_RLatLon0.09_PT045H.grib2 2026-04-29 08:52 426K
20260429T06Z_MSC_RDPS_WindSpeed_IsbL-0200_RLatLon0.09_PT045H.grib2 2026-04-29 08:52 443K
20260429T06Z_MSC_RDPS_WindSpeed_IsbL-0225_RLatLon0.09_PT045H.grib2 2026-04-29 08:52 451K
20260429T06Z_MSC_RDPS_WindSpeed_IsbL-0250_RLatLon0.09_PT045H.grib2 2026-04-29 08:52 454K
20260429T06Z_MSC_RDPS_WindSpeed_IsbL-0275_RLatLon0.09_PT045H.grib2 2026-04-29 08:52 472K
20260429T06Z_MSC_RDPS_WindSpeed_IsbL-0300_RLatLon0.09_PT045H.grib2 2026-04-29 08:52 467K
20260429T06Z_MSC_RDPS_WindSpeed_IsbL-0350_RLatLon0.09_PT045H.grib2 2026-04-29 08:52 478K
20260429T06Z_MSC_RDPS_WindSpeed_IsbL-0400_RLatLon0.09_PT045H.grib2 2026-04-29 08:52 481K
20260429T06Z_MSC_RDPS_WindSpeed_IsbL-0450_RLatLon0.09_PT045H.grib2 2026-04-29 08:52 479K
20260429T06Z_MSC_RDPS_WindSpeed_IsbL-0500_RLatLon0.09_PT045H.grib2 2026-04-29 08:52 463K
20260429T06Z_MSC_RDPS_WindSpeed_IsbL-0550_RLatLon0.09_PT045H.grib2 2026-04-29 08:52 463K
20260429T06Z_MSC_RDPS_WindSpeed_IsbL-0600_RLatLon0.09_PT045H.grib2 2026-04-29 08:52 470K
20260429T06Z_MSC_RDPS_WindSpeed_IsbL-0650_RLatLon0.09_PT045H.grib2 2026-04-29 08:52 611K
20260429T06Z_MSC_RDPS_WindSpeed_IsbL-0700_RLatLon0.09_PT045H.grib2 2026-04-29 08:52 638K
20260429T06Z_MSC_RDPS_WindSpeed_IsbL-0750_RLatLon0.09_PT045H.grib2 2026-04-29 08:52 709K
20260429T06Z_MSC_RDPS_WindSpeed_IsbL-0800_RLatLon0.09_PT045H.grib2 2026-04-29 08:52 751K
20260429T06Z_MSC_RDPS_WindSpeed_IsbL-0850_RLatLon0.09_PT045H.grib2 2026-04-29 08:52 800K
20260429T06Z_MSC_RDPS_WindSpeed_IsbL-0875_RLatLon0.09_PT045H.grib2 2026-04-29 08:52 821K
20260429T06Z_MSC_RDPS_WindSpeed_IsbL-0900_RLatLon0.09_PT045H.grib2 2026-04-29 08:52 839K
20260429T06Z_MSC_RDPS_WindSpeed_IsbL-0925_RLatLon0.09_PT045H.grib2 2026-04-29 08:52 851K
20260429T06Z_MSC_RDPS_WindSpeed_IsbL-0950_RLatLon0.09_PT045H.grib2 2026-04-29 08:52 851K
20260429T06Z_MSC_RDPS_WindSpeed_IsbL-0970_RLatLon0.09_PT045H.grib2 2026-04-29 08:52 852K
20260429T06Z_MSC_RDPS_WindSpeed_IsbL-0985_RLatLon0.09_PT045H.grib2 2026-04-29 08:52 845K
20260429T06Z_MSC_RDPS_WindSpeed_IsbL-1000_RLatLon0.09_PT045H.grib2 2026-04-29 08:52 838K
20260429T06Z_MSC_RDPS_WindSpeed_IsbL-1015_RLatLon0.09_PT045H.grib2 2026-04-29 08:52 827K
20260429T06Z_MSC_RDPS_WindU_AGL-10m_RLatLon0.09_PT045H.grib2 2026-04-29 08:52 425K
20260429T06Z_MSC_RDPS_WindU_AGL-120m_RLatLon0.09_PT045H.grib2 2026-04-29 08:52 531K
20260429T06Z_MSC_RDPS_WindU_AGL-40m_RLatLon0.09_PT045H.grib2 2026-04-29 08:52 532K
20260429T06Z_MSC_RDPS_WindU_AGL-80m_RLatLon0.09_PT045H.grib2 2026-04-29 08:52 532K
20260429T06Z_MSC_RDPS_WindU_IsbL-0001_RLatLon0.09_PT045H.grib2 2026-04-29 08:52 243K
20260429T06Z_MSC_RDPS_WindU_IsbL-0005_RLatLon0.09_PT045H.grib2 2026-04-29 08:52 286K
20260429T06Z_MSC_RDPS_WindU_IsbL-0010_RLatLon0.09_PT045H.grib2 2026-04-29 08:52 298K
20260429T06Z_MSC_RDPS_WindU_IsbL-0020_RLatLon0.09_PT045H.grib2 2026-04-29 08:52 353K
20260429T06Z_MSC_RDPS_WindU_IsbL-0030_RLatLon0.09_PT045H.grib2 2026-04-29 08:52 315K
20260429T06Z_MSC_RDPS_WindU_IsbL-0050_RLatLon0.09_PT045H.grib2 2026-04-29 08:52 342K
20260429T06Z_MSC_RDPS_WindU_IsbL-0100_RLatLon0.09_PT045H.grib2 2026-04-29 08:52 429K
20260429T06Z_MSC_RDPS_WindU_IsbL-0150_RLatLon0.09_PT045H.grib2 2026-04-29 08:52 396K
20260429T06Z_MSC_RDPS_WindU_IsbL-0175_RLatLon0.09_PT045H.grib2 2026-04-29 08:52 420K
20260429T06Z_MSC_RDPS_WindU_IsbL-0200_RLatLon0.09_PT045H.grib2 2026-04-29 08:52 339K
20260429T06Z_MSC_RDPS_WindU_IsbL-0225_RLatLon0.09_PT045H.grib2 2026-04-29 08:52 344K
20260429T06Z_MSC_RDPS_WindU_IsbL-0250_RLatLon0.09_PT045H.grib2 2026-04-29 08:52 345K
20260429T06Z_MSC_RDPS_WindU_IsbL-0275_RLatLon0.09_PT045H.grib2 2026-04-29 08:52 360K
20260429T06Z_MSC_RDPS_WindU_IsbL-0300_RLatLon0.09_PT045H.grib2 2026-04-29 08:52 355K
20260429T06Z_MSC_RDPS_WindU_IsbL-0350_RLatLon0.09_PT045H.grib2 2026-04-29 08:52 363K
20260429T06Z_MSC_RDPS_WindU_IsbL-0400_RLatLon0.09_PT045H.grib2 2026-04-29 08:52 366K
20260429T06Z_MSC_RDPS_WindU_IsbL-0450_RLatLon0.09_PT045H.grib2 2026-04-29 08:52 468K
20260429T06Z_MSC_RDPS_WindU_IsbL-0500_RLatLon0.09_PT045H.grib2 2026-04-29 08:52 469K
20260429T06Z_MSC_RDPS_WindU_IsbL-0550_RLatLon0.09_PT045H.grib2 2026-04-29 08:52 470K
20260429T06Z_MSC_RDPS_WindU_IsbL-0600_RLatLon0.09_PT045H.grib2 2026-04-29 08:52 477K
20260429T06Z_MSC_RDPS_WindU_IsbL-0650_RLatLon0.09_PT045H.grib2 2026-04-29 08:52 481K
20260429T06Z_MSC_RDPS_WindU_IsbL-0700_RLatLon0.09_PT045H.grib2 2026-04-29 08:52 506K
20260429T06Z_MSC_RDPS_WindU_IsbL-0750_RLatLon0.09_PT045H.grib2 2026-04-29 08:52 531K
20260429T06Z_MSC_RDPS_WindU_IsbL-0800_RLatLon0.09_PT045H.grib2 2026-04-29 08:52 567K
20260429T06Z_MSC_RDPS_WindU_IsbL-0850_RLatLon0.09_PT045H.grib2 2026-04-29 08:52 611K
20260429T06Z_MSC_RDPS_WindU_IsbL-0875_RLatLon0.09_PT045H.grib2 2026-04-29 08:52 628K
20260429T06Z_MSC_RDPS_WindU_IsbL-0900_RLatLon0.09_PT045H.grib2 2026-04-29 08:52 641K
20260429T06Z_MSC_RDPS_WindU_IsbL-0925_RLatLon0.09_PT045H.grib2 2026-04-29 08:52 650K
20260429T06Z_MSC_RDPS_WindU_IsbL-0950_RLatLon0.09_PT045H.grib2 2026-04-29 08:52 650K
20260429T06Z_MSC_RDPS_WindU_IsbL-0970_RLatLon0.09_PT045H.grib2 2026-04-29 08:52 649K
20260429T06Z_MSC_RDPS_WindU_IsbL-0985_RLatLon0.09_PT045H.grib2 2026-04-29 08:52 784K
20260429T06Z_MSC_RDPS_WindU_IsbL-1000_RLatLon0.09_PT045H.grib2 2026-04-29 08:52 778K
20260429T06Z_MSC_RDPS_WindU_IsbL-1015_RLatLon0.09_PT045H.grib2 2026-04-29 08:52 816K
20260429T06Z_MSC_RDPS_WindV_AGL-10m_RLatLon0.09_PT045H.grib2 2026-04-29 08:52 422K
20260429T06Z_MSC_RDPS_WindV_AGL-120m_RLatLon0.09_PT045H.grib2 2026-04-29 08:52 526K
20260429T06Z_MSC_RDPS_WindV_AGL-40m_RLatLon0.09_PT045H.grib2 2026-04-29 08:52 527K
20260429T06Z_MSC_RDPS_WindV_AGL-80m_RLatLon0.09_PT045H.grib2 2026-04-29 08:52 526K
20260429T06Z_MSC_RDPS_WindV_IsbL-0001_RLatLon0.09_PT045H.grib2 2026-04-29 08:52 245K
20260429T06Z_MSC_RDPS_WindV_IsbL-0005_RLatLon0.09_PT045H.grib2 2026-04-29 08:52 287K
20260429T06Z_MSC_RDPS_WindV_IsbL-0010_RLatLon0.09_PT045H.grib2 2026-04-29 08:52 301K
20260429T06Z_MSC_RDPS_WindV_IsbL-0020_RLatLon0.09_PT045H.grib2 2026-04-29 08:52 317K
20260429T06Z_MSC_RDPS_WindV_IsbL-0030_RLatLon0.09_PT045H.grib2 2026-04-29 08:52 318K
20260429T06Z_MSC_RDPS_WindV_IsbL-0050_RLatLon0.09_PT045H.grib2 2026-04-29 08:52 343K
20260429T06Z_MSC_RDPS_WindV_IsbL-0100_RLatLon0.09_PT045H.grib2 2026-04-29 08:52 331K
20260429T06Z_MSC_RDPS_WindV_IsbL-0150_RLatLon0.09_PT045H.grib2 2026-04-29 08:52 393K
20260429T06Z_MSC_RDPS_WindV_IsbL-0175_RLatLon0.09_PT045H.grib2 2026-04-29 08:52 419K
20260429T06Z_MSC_RDPS_WindV_IsbL-0200_RLatLon0.09_PT045H.grib2 2026-04-29 08:52 433K
20260429T06Z_MSC_RDPS_WindV_IsbL-0225_RLatLon0.09_PT045H.grib2 2026-04-29 08:52 439K
20260429T06Z_MSC_RDPS_WindV_IsbL-0250_RLatLon0.09_PT045H.grib2 2026-04-29 08:52 343K
20260429T06Z_MSC_RDPS_WindV_IsbL-0275_RLatLon0.09_PT045H.grib2 2026-04-29 08:52 358K
20260429T06Z_MSC_RDPS_WindV_IsbL-0300_RLatLon0.09_PT045H.grib2 2026-04-29 08:52 353K
20260429T06Z_MSC_RDPS_WindV_IsbL-0350_RLatLon0.09_PT045H.grib2 2026-04-29 08:52 361K
20260429T06Z_MSC_RDPS_WindV_IsbL-0400_RLatLon0.09_PT045H.grib2 2026-04-29 08:52 466K
20260429T06Z_MSC_RDPS_WindV_IsbL-0450_RLatLon0.09_PT045H.grib2 2026-04-29 08:52 465K
20260429T06Z_MSC_RDPS_WindV_IsbL-0500_RLatLon0.09_PT045H.grib2 2026-04-29 08:52 465K
20260429T06Z_MSC_RDPS_WindV_IsbL-0550_RLatLon0.09_PT045H.grib2 2026-04-29 08:52 467K
20260429T06Z_MSC_RDPS_WindV_IsbL-0600_RLatLon0.09_PT045H.grib2 2026-04-29 08:52 457K
20260429T06Z_MSC_RDPS_WindV_IsbL-0650_RLatLon0.09_PT045H.grib2 2026-04-29 08:52 477K
20260429T06Z_MSC_RDPS_WindV_IsbL-0700_RLatLon0.09_PT045H.grib2 2026-04-29 08:52 502K
20260429T06Z_MSC_RDPS_WindV_IsbL-0750_RLatLon0.09_PT045H.grib2 2026-04-29 08:52 526K
20260429T06Z_MSC_RDPS_WindV_IsbL-0800_RLatLon0.09_PT045H.grib2 2026-04-29 08:52 562K
20260429T06Z_MSC_RDPS_WindV_IsbL-0850_RLatLon0.09_PT045H.grib2 2026-04-29 08:52 606K
20260429T06Z_MSC_RDPS_WindV_IsbL-0875_RLatLon0.09_PT045H.grib2 2026-04-29 08:52 625K
20260429T06Z_MSC_RDPS_WindV_IsbL-0900_RLatLon0.09_PT045H.grib2 2026-04-29 08:52 639K
20260429T06Z_MSC_RDPS_WindV_IsbL-0925_RLatLon0.09_PT045H.grib2 2026-04-29 08:52 647K
20260429T06Z_MSC_RDPS_WindV_IsbL-0950_RLatLon0.09_PT045H.grib2 2026-04-29 08:52 786K
20260429T06Z_MSC_RDPS_WindV_IsbL-0970_RLatLon0.09_PT045H.grib2 2026-04-29 08:52 784K
20260429T06Z_MSC_RDPS_WindV_IsbL-0985_RLatLon0.09_PT045H.grib2 2026-04-29 08:52 778K
20260429T06Z_MSC_RDPS_WindV_IsbL-1000_RLatLon0.09_PT045H.grib2 2026-04-29 08:52 771K
20260429T06Z_MSC_RDPS_WindV_IsbL-1015_RLatLon0.09_PT045H.grib2 2026-04-29 08:52 809K